Flag for Germany Weather past 2 weeks in Aurich, Lower Saxony, Germany

Now
48 °F

Partly sunny.


Feels Like: 42 °F
Forecast: 39 / 60 °F
Wind: 17 mph from North

Location: Wittmundhaven


UV Index: 3 (Moderate)

Visibility: N/A


Pressure: 29.95 "Hg

Humidity: 71%

Dew point: 39 °F

Location of AurichLocation

Historic Weather in Aurich

°F

Aurich temperature yesterday

Maximum temperature yesterday: 61 °F (at 2:20 PM)
Minimum temperature yesterday: 41 °F (at 4:20 AM)
Average temperature yesterday: 49 °F

Past Weeks' High & Low Weather Summary

 TemperatureHumidityPressure
High64 °F (Apr 7, 7:20 PM)100% (Apr 4, 10:20 PM)30.48 "Hg (Apr 4, 10:20 PM)
Low30 °F (Apr 16, 4:20 AM)33% (Apr 16, 3:20 PM)29.62 "Hg (Apr 8, 5:20 AM)
Average49 °F79%30.01 "Hg
* Reported Apr 3 2:20 PM — Apr 18 2:20 PM, Aurich, Weather by CustomWeather, © 2014

Note: Actual official high and low records may vary slightly from our data, if they occured in-between our weather recording intervals... More about our weather records

Advertising

Historic Weather Conditions — Data for Previous 24 hours

 ConditionsComfort  
Time TempWeatherWind HumidityBarometerVisibility
2:20 PM
Apr 18
48 °FPartly sunny.17 mph71%29.95 "HgN/A
1:20 PM48 °FPartly sunny.17 mph66%29.92 "HgN/A
12:20 PM48 °FBroken clouds.16 mph71%29.89 "HgN/A
11:20 AM46 °FBroken clouds.14 mph76%29.89 "HgN/A
10:20 AM46 °FPartly sunny.13 mph76%29.89 "HgN/A
9:20 AM46 °FPartly sunny.14 mph71%29.86 "HgN/A
8:20 AM45 °FPartly sunny.13 mph71%29.86 "HgN/A
7:20 AM45 °FScattered showers. Passing clouds.10 mph81%29.86 "HgN/A
6:20 AM45 °FPartly cloudy.14 mph81%29.83 "HgN/A
5:20 AM43 °FPassing clouds.12 mph87%29.83 "HgN/A
4:20 AM45 °FPassing clouds.16 mph81%29.83 "HgN/A
3:20 AM45 °FPassing clouds.10 mph81%29.83 "HgN/A
2:20 AM45 °FPassing clouds.12 mph81%29.83 "HgN/A
1:20 AM43 °FPassing clouds.12 mph87%29.83 "HgN/A
12:20 AM43 °FPassing clouds.8 mph81%29.86 "HgN/A
11:20 PM
Apr 17
45 °FPassing clouds.7 mph81%29.86 "HgN/A
10:20 PM46 °FPassing clouds.9 mph93%29.86 "Hg6 mi
9:20 PM46 °FLight rain. Partly sunny.15 mph93%29.86 "Hg4 mi
8:20 PM48 °FDrizzle. Fog.17 mph94%29.86 "Hg2 mi
6:20 PM55 °FLight rain. Partly sunny.16 mph55%29.89 "HgN/A
5:20 PM55 °FPartly sunny.23 mph55%29.92 "HgN/A
4:20 PM61 °FPartly sunny.21 mph36%29.92 "HgN/A
3:20 PM59 °FPartly sunny.20 mph42%29.95 "HgN/A
Weather by CustomWeather, © 2014

See weather overview